EW2485 Weather Reports


Display with metric or nautical units.
time (UTC)temp
F
wind
direction
speed
MPH
gust
MPH
rain 1hr
in
rain 24hr
in
rain mn
in
humidity
%
barometer
mb
20260831124549 63 143 2.0 5.0 0.00 0.00 0.00 96 1020.0
20260831123055 62 135 1.0 7.0 0.00 0.00 0.00 96 1020.1
20260831121524 61 161 1.0 3.0 0.00 0.00 0.00 95 1019.9
20260831120048 60 314 1.0 3.0 0.00 0.00 0.00 94 1019.9
20260831114504 60 46 1.0 3.0 0.00 0.00 0.00 94 1020.0
20260831113030 60 35 2.0 3.0 0.00 0.00 0.00 94 1020.1
20260831111507 59 269 1.0 3.0 0.00 0.00 0.00 94 1020.0
20260831110055 59 314 1.0 3.0 0.00 0.00 0.00 94 1019.9
20260831104557 59 331 3.0 5.0 0.00 0.00 0.00 94 1019.8
20260831103028 58 28 1.0 3.0 0.00 0.00 0.00 94 1019.6
20260831101550 58 56 1.0 5.0 0.00 0.00 0.00 94 1019.4
20260831100006 58 59 1.0 4.0 0.00 0.00 0.00 94 1019.5
20260831094529 58 28 1.0 3.0 0.00 0.00 0.00 94 1019.6
20260831093050 58 295 1.0 2.0 0.00 0.00 0.00 94 1019.6
20260831091507 57 135 1.0 3.0 0.00 0.00 0.00 94 1019.6
20260831090029 57 72 1.0 3.0 0.00 0.00 0.00 93 1019.7
20260831084547 57 9 3.0 5.0 0.00 0.00 0.00 93 1019.6
20260831083009 57 32 2.0 4.0 0.00 0.00 0.00 93 1019.6
20260831081541 56 15 2.0 4.0 0.00 0.00 0.00 93 1019.5
20260831080028 56 40 2.0 5.0 0.00 0.00 0.00 93 1019.6
20260831074508 56 56 2.0 4.0 0.00 0.00 0.00 92 1019.5
20260831073048 57 23 2.0 5.0 0.00 0.00 0.00 92 1019.6
20260831071554 57 63 1.0 3.0 0.00 0.00 0.00 93 1019.7
20260831070030 57 321 2.0 3.0 0.00 0.00 0.00 92 1019.7
20260831064545 57 35 2.0 3.0 0.00 0.00 0.00 92 1019.6
20260831063006 57 39 2.0 4.0 0.00 0.00 0.00 92 1019.4
20260831061533 58 79 1.0 3.0 0.00 0.00 0.00 92 1019.7
20260831060046 58 89 1.0 3.0 0.00 0.00 0.00 92 1019.8
20260831054520 59 32 2.0 4.0 0.00 0.00 0.00 92 1019.9
20260831053040 59 1 2.0 4.0 0.00 0.00 0.00 92 1020.2
20260831051519 59 56 2.0 4.0 0.00 0.00 0.00 91 1020.2
20260831050111 59 1 2.0 4.0 0.00 0.00 0.00 91 1020.1
20260831044557 60 20 2.0 3.0 0.00 0.00 0.00 91 1020.1
20260831043008 60 15 1.0 4.0 0.00 0.00 0.00 91 1020.3
20260831041530 61 20 2.0 4.0 0.00 0.00 0.00 91 1020.1
20260831040042 61 56 1.0 4.0 0.00 0.00 0.00 91 1020.3
20260831034521 62 296 2.0 3.0 0.00 0.00 0.00 91 1020.1
20260831033011 62 314 1.0 3.0 0.00 0.00 0.00 90 1020.1
20260831031555 62 331 1.0 2.0 0.00 0.00 0.00 91 1020.0
20260831030031 63 46 1.0 2.0 0.00 0.00 0.00 90 1020.3
20260831024613 63 28 1.0 2.0 0.00 0.00 0.00 90 1020.4
20260831023025 63 135 1.0 3.0 0.00 0.00 0.00 90 1020.1
20260831021545 63 331 2.0 5.0 0.00 0.00 0.00 90 1020.1
20260831020009 63 327 2.0 4.0 0.00 0.00 0.00 90 1020.3
20260831014540 64 39 1.0 3.0 0.00 0.00 0.00 90 1020.1
20260831013058 64 241 1.0 3.0 0.00 0.00 0.00 90 1020.1
20260831011520 64 46 1.0 2.0 0.00 0.00 0.00 89 1020.2
20260831010047 64 127 0.0 3.0 0.00 0.00 0.00 89 1020.1
20260831004507 64 161 0.0 3.0 0.00 0.00 0.00 89 1020.0
20260831003049 64 269 2.0 4.0 0.00 0.00 0.00 89 1019.7
20260831001541 65 269 1.0 5.0 0.00 0.00 0.00 89 1019.4
20260831000018 65 295 2.0 5.0 0.00 0.00 0.00 89 1019.3
20260830234555 65 223 2.0 4.0 0.00 0.00 0.00 89 1019.1
20260830233053 65 234 1.0 3.0 0.00 0.00 0.00 89 1019.0
20260830231513 66 213 0.0 3.0 0.00 0.00 0.00 89 1019.1
20260830230038 66 197 1.0 3.0 0.00 0.00 0.00 89 1019.0
20260830224551 67 178 1.0 6.0 0.00 0.00 0.00 88 1019.2
20260830223018 67 314 1.0 6.0 0.00 0.00 0.00 87 1019.2
20260830221533 67 269 2.0 4.0 0.00 0.00 0.00 87 1018.9
20260830220051 68 124 1.0 3.0 0.00 0.00 0.00 87 1018.8
20260830214521 67 46 1.0 3.0 0.00 0.00 0.00 87 1018.9
20260830213006 68 46 1.0 2.0 0.00 0.00 0.00 86 1018.8
20260830211549 68 178 2.0 4.0 0.00 0.00 0.00 85 1018.9
20260830210021 68 152 0.0 4.0 0.00 0.00 0.00 85 1018.9
20260830204538 68 295 1.0 7.0 0.00 0.00 0.00 85 1018.9
20260830203057 68 293 4.0 8.0 0.00 0.00 0.00 84 1019.0
20260830201549 68 310 3.0 6.0 0.00 0.00 0.00 84 1019.1
20260830200040 69 346 3.0 8.0 0.00 0.00 0.00 84 1018.9
20260830194505 69 331 2.0 5.0 0.00 0.00 0.00 85 1018.7
20260830193037 69 9 3.0 6.0 0.00 0.00 0.00 85 1018.8
20260830191554 69 325 3.0 5.0 0.00 0.00 0.00 85 1019.0
20260830190022 70 331 3.0 7.0 0.00 0.00 0.00 81 1019.1
20260830184550 70 320 4.0 9.0 0.00 0.00 0.00 80 1019.1
20260830183032 71 349 4.0 8.0 0.00 0.00 0.00 78 1019.0
20260830181513 71 347 4.0 9.0 0.00 0.00 0.00 77 1018.9
20260830180049 71 291 5.0 11.0 0.00 0.00 0.00 78 1019.0
20260830174513 72 324 5.0 10.0 0.00 0.00 0.00 76 1019.0
20260830173034 73 300 5.0 10.0 0.00 0.00 0.00 76 1019.2
20260830171552 74 325 4.0 8.0 0.00 0.00 0.00 75 1019.0
20260830170010 75 337 3.0 9.0 0.00 0.00 0.00 73 1019.0
20260830164535 76 238 3.0 8.0 0.00 0.00 0.00 77 1019.1
20260830163051 76 274 3.0 8.0 0.00 0.00 0.00 74 1019.2
20260830161508 76 241 4.0 8.0 0.00 0.00 0.00 76 1019.3
20260830160032 77 269 5.0 13.0 0.00 0.00 0.00 74 1019.6
20260830154554 75 152 3.0 8.0 0.00 0.00 0.00 78 1019.6
20260830153045 74 219 5.0 13.0 0.00 0.00 0.00 77 1019.7
20260830151516 73 152 3.0 10.0 0.00 0.00 0.00 80 1019.9
20260830150040 71 131 2.0 8.0 0.00 0.00 0.00 82 1019.8
20260830144600 69 178 4.0 8.0 0.00 0.00 0.00 81 1019.9
20260830144504 69 194 4.0 8.0 0.00 0.00 0.00 81 1020.0
20260830143027 69 135 2.0 8.0 0.00 0.00 0.00 83 1019.9
20260830141552 69 193 4.0 7.0 0.00 0.00 0.00 82 1019.9
20260830140009 69 178 4.0 9.0 0.00 0.00 0.00 83 1019.6
20260830134536 68 173 5.0 11.0 0.00 0.00 0.00 82 1019.6
20260830133055 68 140 4.0 8.0 0.00 0.00 0.00 84 1019.9
20260830131520 66 167 3.0 9.0 0.00 0.00 0.00 85 1020.1
20260830130045 65 146 3.0 6.0 0.00 0.00 0.00 88 1020.1